Location: Gwredog
(53.3500°N, 4.4000°W)
Time: 00:26:37
(UTC+00:00)

Daily predictions for brighter satellites

Satellite Brightness Start Highest point End
(mag) Time Altitude Azimuth Time Altitude Azimuth Time Altitude Azimuth
ATLAS 2AS CENTAUR R/B 3.9 02:18:40 40° NNE 02:18:40 40° NNE 02:24:03 10° NE
Cosmos 2219 Rocket 4.1 02:47:05 23° NNE 02:48:29 25° NE 02:53:07 10° E
Cosmos 2082 Rocket 3.7 02:51:57 32° NE 02:51:57 32° NE 02:54:57 10° NNE
ARIANE 5 R/B 4.5 02:48:48 10° NE 02:52:07 24° ENE 02:52:07 24° ENE
Cosmos 2360 Rocket 3.9 02:56:00 26° E 02:56:00 26° E 02:58:40 10° ESE
ADEOS II 4.1 02:48:22 10° NNE 02:50:08 22° NNE 02:50:08 22° NNE
CZ-2D R/B 4.4 02:50:05 10° N 02:51:12 17° N 02:51:12 17° N
Cosmos 1833 Rocket 4.4 02:58:09 27° NNE 02:58:09 27° NNE 03:00:45 10° NNE
Lacrosse 5 rocket 4.2 03:03:52 17° ENE 03:03:52 17° ENE 03:04:55 10° ENE
Cosmos 2333 Rocket 3.7 03:03:17 29° NNE 03:04:44 33° NE 03:09:56 10° ESE
CZ-4C R/B 2.9 03:10:03 72° NE 03:10:05 72° NE 03:18:14 10° ESE
COSMOS 2455 3.2 03:26:17 60° E 03:26:17 60° E 03:31:33 10° NE
Resurs 1-4 Rocket 4.2 03:36:47 10° N 03:38:10 16° NNW 03:38:10 16° NNW
ALOS 3.7 03:41:06 10° NNE 03:45:25 35° E 03:46:48 29° SE
IRS-1C 4.2 03:45:30 10° NNE 03:50:20 72° NE 03:50:20 72° NE
CZ-4B R/B 4.3 03:46:41 10° NNE 03:51:48 49° E 03:53:31 35° SSE
Cosmos 2366 rocket 4.0 03:47:53 10° N 03:54:17 86° E 04:00:39 10° S
Meteor 1-21 4.4 03:54:56 59° SSE 03:55:49 70° E 04:01:25 10° NNE
ATLAS CENTAUR R/B 3.0 03:58:05 30° NNE 03:58:05 30° NNE 04:00:45 10° NE
CZ-2C R/B 4.5 03:56:36 10° NNE 03:59:53 29° E 04:00:02 29° E
ATLAS 2AS CENTAUR R/B 3.8 04:06:06 26° NW 04:09:35 39° N 04:16:14 10° ENE
COSMOS 2428 3.4 04:05:13 15° NNW 04:09:45 51° NE 04:15:19 10° SE
SL-4 R/B 4.4 04:13:18 15° SSE 04:13:18 15° SSE 04:14:13 10° SSE
IDEFIX/ARIANE 42P 3.9 04:11:06 10° N 04:13:55 26° NNW 04:13:55 26° NNW
Cosmos 2333 4.2 04:13:03 31° NNW 04:15:56 84° ENE 04:21:44 10° SSE
Cosmos 44 Rocket 3.7 04:14:45 47° NNW 04:15:57 62° NE 04:20:49 10° ESE
CZ-2C R/B 4.5 04:12:03 10° ESE 04:16:53 31° ENE 04:21:46 10° N
CZ-2C R/B 2.3 04:12:52 10° NNE 04:17:44 83° ESE 04:18:11 72° S
KORONAS-FOTON 4.4 04:20:52 54° ENE 04:20:52 54° ENE 04:24:09 10° NNE
Meteor 1-16 Rocket 4.0 04:22:41 10° NNW 04:28:11 87° WSW 04:33:32 10° S
Cosmos 2322 Rocket 4.4 04:33:33 11° S 04:33:33 11° S 04:33:43 10° S
Cosmos 2181 Rocket 3.9 04:27:42 34° SSW 04:30:34 73° WNW 04:36:54 10° N
IRS-P3 4.2 04:26:25 10° N 04:31:37 54° WNW 04:31:43 54° WNW
Lacrosse 5 4.1 04:35:23 11° S 04:35:23 11° S 04:35:45 10° S
ARIANE 5 R/B 2.4 04:27:29 10° N 04:32:24 58° WNW 04:32:26 58° WNW
ADEOS II 3.9 04:28:58 10° N 04:31:03 17° NNW 04:31:03 17° NNW
SL-16 R/B 4.3 04:28:58 10° NNW 04:33:17 21° NNE 04:37:35 10° ENE
Cosmos 2219 Rocket 2.2 04:28:53 17° NNW 04:33:18 82° ENE 04:38:59 10° SE
Cosmos 2082 Rocket 3.2 04:33:49 30° NW 04:33:54 30° NW 04:38:55 10° NNE
CZ-2D R/B 4.3 04:32:02 10° NNW 04:32:31 11° NNW 04:32:31 11° NNW
Cosmos 1818 3.4 04:32:39 44° NW 04:34:27 81° SW 04:39:55 10° SE
Cosmos 1626 2.7 04:33:48 36° SSE 04:35:02 56° E 04:38:41 10° NNE
SL-8 Rocket 4.3 04:29:48 10° NNW 04:35:05 43° WNW 04:35:05 43° WNW
Cosmos 2360 Rocket 2.4 04:37:53 46° SW 04:37:53 46° SW 04:42:46 10° S
Spot 4 Rocket 3.9 04:32:21 10° NNE 04:37:32 85° WNW 04:40:17 29° SSW
Cosmos 1821 Rocket 3.9 04:32:27 10° N 04:38:43 87° ENE 04:44:52 10° S
Lacrosse 5 rocket 1.6 04:39:28 56° NNW 04:39:49 58° NNW 04:44:16 10° ENE
Cosmos 1833 Rocket 4.3 04:39:51 19° NW 04:40:23 20° NNW 04:44:26 10° NNE
SL-08 R/B 4.5 04:34:24 10° NNW 04:40:55 80° W 04:47:22 10° S
NOSS 0 Rocket 4.5 04:37:24 10° NNW 04:43:31 58° NE 04:49:34 10° SE
Cosmos 2237 Rocket 3.4 04:38:55 10° NNW 04:44:17 40° NE 04:49:37 10° ESE
Cosmos 1707 4.3 04:48:53 23° NNW 04:48:53 23° NNW 04:50:39 10° N
Cosmos 2056 Rocket 4.2 04:43:05 10° NNW 04:48:12 55° ENE 04:53:21 10° SE
FENGYUN 3A 3.6 04:43:03 10° NNE 04:48:29 70° WNW 04:51:59 23° SSW
Cosmos 2333 Rocket 2.1 04:45:22 20° NW 04:49:29 68° WSW 04:55:12 10° SSE
Cosmos 2218 Rocket 4.3 04:43:47 10° NNW 04:49:47 43° W 04:55:42 10° SSW
Cosmos 1025 Rocket 4.2 04:46:16 10° SSE 04:50:20 44° E 04:54:26 10° NNE
CZ-2D R/B 4.2 04:48:23 10° N 04:51:09 34° NNW 04:51:09 34° NNW
Cosmos 1346 Rocket 2.7 04:55:09 50° SW 04:56:02 68° WNW 05:00:04 10° N
Cosmos 1674 2.7 04:57:47 53° NW 04:57:47 53° NW 05:01:13 10° N
CZ-4C R/B 3.3 04:55:17 29° WNW 04:58:39 44° WSW 05:06:24 10° S
USA 308 4.3 04:56:50 20° SSW 04:59:05 33° SE 05:02:56 10° E
Cosmos 1953 3.7 05:03:36 24° SSW 05:03:36 24° SSW 05:05:22 10° SSW
H-2A R/B 4.4 04:59:11 10° NNE 05:02:42 34° E 05:06:08 10° SSE
Cosmos 1378 Rocket 4.4 05:04:12 31° NW 05:04:12 31° NW 05:07:38 10° N
Cosmos 1300 2.6 05:03:23 10° N 05:07:13 89° E 05:11:01 10° S
ISS -1.8 05:05:54 17° S 05:07:28 24° SSE 05:10:14 10° E
Cosmos 1441 Rocket 3.6 05:05:56 10° S 05:09:36 63° E 05:13:18 10° NNE
Cosmos 1455 Rocket 3.1 05:05:26 10° NNW 05:09:50 57° W 05:14:10 10° S
Cosmos 2322 3.8 05:06:00 13° NW 05:10:58 55° WSW 05:16:29 10° S
COSMOS 2455 3.4 05:09:27 28° W 05:11:52 40° NW 05:17:34 10° NE
COSMO-SKYMED 1 2.7 05:09:36 10° SSE 05:13:56 79° ENE 05:18:19 10° NNW
APEX 3.9 05:10:58 23° SW 05:14:22 63° NW 05:18:57 10° NNE
USA 234 4.4 05:09:01 10° ENE 05:15:08 40° SE 05:21:13 10° SSW
COSMOS 2487 2.7 05:12:08 10° SSW 05:15:26 63° ESE 05:18:45 10° NNE
NOSS 7 (H) 4.5 05:14:17 37° NW 05:15:33 79° SW 05:19:53 10° SE
SL-27 R/B 2.6 05:17:40 43° WNW 05:17:55 44° WNW 05:21:10 10° NNE
SJ-6F 4.4 05:15:48 10° NNE 05:20:01 84° WNW 05:24:12 10° SSW
Cosmos 1371 Rocket 3.9 05:15:03 10° NNW 05:20:16 84° WSW 05:25:27 10° SSE
Meteor 2-10 Rocket 3.5 05:16:06 10° NNW 05:21:12 80° ENE 05:26:13 10° SSE
ALOS 2.8 05:18:33 10° N 05:22:51 37° WNW 05:25:17 22° WSW
SL-14 R/B 3.1 05:19:50 10° SSW 05:23:45 77° WNW 05:27:40 10° N
Cosmos 158 Rocket 3.9 05:19:48 14° SW 05:24:02 61° WNW 05:28:56 10° NNE
Cosmos 1544 Rocket 3.4 05:20:03 10° NNW 05:24:28 67° W 05:28:47 10° S
Meteor 1-4 Rocket 2.3 05:22:03 10° NNW 05:25:31 71° W 05:29:01 10° S
Cosmos 1975 Rocket 3.1 05:23:42 10° SSW 05:28:05 56° WNW 05:32:31 10° N
Cosmos 1624 Rocket 4.0 05:24:04 10° NNW 05:29:26 79° WSW 05:34:44 10° SSE
CZ-4B R/B 4.2 05:25:38 10° N 05:30:19 34° WNW 05:33:26 18° WSW
METEOR-M 4.3 05:27:50 10° N 05:33:00 50° WNW 05:38:08 10° SW
CZ-2C R/B 3.5 05:31:01 10° N 05:34:15 29° WNW 05:35:23 24° W
IRAS Rocket 4.3 05:29:52 10° SSE 05:35:31 90° ENE 05:41:10 10° NNW
ATLAS CENTAUR R/B 3.3 05:34:13 15° NW 05:36:24 21° N 05:39:55 10° NE
Cosmos 1484 Rocket 3.3 05:33:49 10° N 05:37:20 36° WNW 05:40:41 11° SW
Meteor 1-24 Rocket 4.2 05:32:04 10° S 05:37:22 63° E 05:42:52 10° NNE
USA 276 3.5 05:35:27 16° SW 05:37:25 32° SSE 05:40:16 10° E
Cosmos 1238 4.2 05:34:29 10° S 05:37:29 83° E 05:40:40 10° NNE
CZ-4B R/B 3.8 05:38:29 10° ESE 05:41:02 23° ENE 05:43:40 10° N
PSLV R/B 4.0 05:37:30 10° N 05:41:37 40° WNW 05:45:41 10° SW
USA 305 3.3 05:41:40 13° SW 05:45:20 59° SSE 05:49:28 10° ENE
Cosmos 1833 4.4 05:46:42 10° SW 05:52:10 49° NW 05:57:39 10° NNE
COSMOS 2428 3.2 05:48:42 10° NW 05:53:55 38° WSW 05:59:07 10° S
CZ-2C R/B 3.7 05:52:00 10° N 05:55:22 19° NW 05:57:34 14° W
NOSS 3-4 (A) 3.8 05:49:40 10° NW 05:56:29 89° SW 06:04:08 10° SE
NOSS 3-4 (C) 3.8 05:49:47 10° NW 05:56:35 90° SW 06:04:14 10° SE
CZ-2C R/B 2.8 05:51:25 10° S 05:56:54 59° W 06:02:28 10° NNW
Cosmos 44 Rocket 4.1 05:53:31 13° WNW 05:57:14 31° WSW 06:01:27 10° S
Cosmos 292 Rocket 4.1 05:53:38 10° NW 05:58:14 43° WSW 06:02:46 10° S
BREEZE-M DEB (TANK) 3.8 05:57:56 14° WSW 05:59:46 23° SSW 06:03:45 10° SSE
Landsat 5 3.9 05:57:49 10° SSW 06:01:35 38° W 06:05:30 10° NNW
ATLAS 2AS CENTAUR R/B 3.2 05:54:25 10° NW 06:01:51 62° NNE 06:08:44 10° ESE
Cosmos 2297 Rocket 3.8 05:56:50 10° S 06:02:01 39° ESE 06:07:14 10° NE
SKYMED 2 4.0 05:58:04 10° SSW 06:02:08 38° W 06:06:14 10° NNW
YAOGAN 6 2.7 05:59:32 10° N 06:02:59 51° WNW 06:06:27 10° SSW
Cosmos 1605 Rocket 4.1 05:59:09 10° NNW 06:05:31 66° W 06:11:48 10° S
H-2A R/B 2.0 06:01:33 10° SSE 06:05:41 88° ENE 06:09:48 10° NNW
Cosmos 1420 Rocket 4.1 06:00:53 10° NNW 06:05:58 58° WSW 06:11:03 10° S
CZ-4C R/B 3.5 06:03:06 10° S 06:06:28 39° W 06:09:49 10° NNW
NOSS 3-3 (A) 4.2 06:02:55 10° SW 06:08:45 74° SE 06:15:32 10° NE
NOSS 3-3 (C) 4.3 06:03:00 10° SW 06:08:49 74° SE 06:15:36 10° NE
ARIANE 5 R/B 4.2 06:08:16 10° NNW 06:10:34 13° NW 06:12:46 10° WNW
Cosmos 1626 3.7 06:08:22 11° WSW 06:10:36 16° WNW 06:13:01 10° NNW
SJ-12 4.1 06:07:06 10° N 06:11:01 46° WNW 06:14:54 10° SW
Cosmos 1356 3.7 06:09:07 10° S 06:12:29 72° E 06:15:53 10° NNE
Cosmos 1452 Rocket 3.6 06:07:34 10° NNW 06:12:54 87° ENE 06:18:12 10° SSE
Cosmos 2228 3.0 06:11:04 10° NNW 06:15:26 74° W 06:19:45 10° S
Cosmos 1900 4.5 06:10:40 10° WSW 06:15:27 53° NW 06:20:17 10° NE
USA 307 3.1 06:11:23 10° WSW 06:15:34 72° SSE 06:19:44 10° ENE
Cosmos 2219 Rocket 3.4 06:12:25 10° NW 06:16:38 22° WSW 06:20:50 10° SSW
USA 306 3.0 06:12:27 10° WSW 06:16:41 76° SSE 06:20:56 10° ENE
SL-16 R/B 2.7 06:12:52 10° NNW 06:18:34 63° NE 06:24:13 10° SE
Lacrosse 5 rocket 1.9 06:15:05 10° WNW 06:19:26 57° N 06:23:57 10° E
Cosmos 2082 Rocket 4.1 06:16:55 10° NW 06:19:59 14° NNW 06:23:03 10° NNE
ERBS 2.8 06:23:39 10° SW 06:26:52 58° SSE 06:30:06 10° ENE
ADEOS 3.6 06:21:53 10° NNE 06:27:07 71° WNW 06:32:18 10° SSW
DMSP B5D2-2 4.1 06:21:52 10° S 06:27:08 67° WSW 06:32:25 10° NNW
Cosmos 1242 Rocket 4.1 06:23:39 10° N 06:27:08 39° ENE 06:30:34 10° SE
Cosmos 1980 4.0 06:21:53 10° NW 06:27:21 49° WSW 06:32:45 10° S
CZ-4B R/B 3.2 06:22:56 10° NNE 06:27:25 84° ESE 06:31:43 10° SSW
Envisat 3.3 06:22:44 10° N 06:27:37 47° WNW 06:32:28 10° SW
Cosmos 1025 Rocket 4.0 06:24:33 10° WSW 06:28:08 25° WNW 06:31:44 10° N
Cosmos 2237 Rocket 2.5 06:23:02 10° NW 06:28:33 51° WSW 06:34:00 10° S
Cosmos 1110 Rocket 4.3 06:24:45 10° NNW 06:29:57 72° ENE 06:35:08 10° SSE
Cosmos 2056 Rocket 4.4 06:25:39 10° NW 06:30:04 29° WSW 06:34:32 10° SSW
Cosmos 2227 Rocket 3.5 06:24:46 10° S 06:30:09 46° ESE 06:35:34 10° NE
Cosmos 1867 3.9 06:24:50 10° SW 06:30:17 76° SE 06:35:48 10° NE
